N6DZK Weather Reports


time (UTC)temp
C
wind
direction
speed
KPH
gust
KPH
rain 1hr
cm
rain 24hr
cm
rain mn
cm
humidity
%
barometer
mb
20260506021512 16 60 0.0 0.0 0.00 0.00 0.00 74 1016.0
20260506021009 16 78 1.6 1.6 0.00 0.00 0.00 73 1016.1
20260506020506 16 116 0.0 1.6 0.00 0.00 0.00 74 1016.0
20260506020004 16 89 0.0 0.0 0.00 0.00 0.00 74 1016.2
20260506015501 16 89 0.0 1.6 0.00 0.00 0.00 73 1016.1
20260506014957 16 147 0.0 1.6 0.00 0.00 0.00 72 1016.2
20260506014454 16 9 0.0 1.6 0.00 0.00 0.00 73 1016.0
20260506013951 16 32 0.0 0.0 0.00 0.00 0.00 73 1016.1
20260506013449 16 89 0.0 0.0 0.00 0.00 0.00 73 1016.0
20260506012945 16 25 0.0 1.6 0.00 0.00 0.00 72 1016.2
20260506012441 16 38 0.0 0.0 0.00 0.00 0.00 73 1016.1
20260506011938 16 60 0.0 0.0 0.00 0.00 0.00 72 1016.1
20260506011436 16 37 0.0 1.6 0.00 0.00 0.00 72 1016.1
20260506010933 16 37 0.0 0.0 0.00 0.00 0.00 72 1016.2
20260506010432 16 37 0.0 1.6 0.00 0.00 0.00 72 1016.1
20260506005927 16 89 0.0 1.6 0.00 0.00 0.00 72 1016.2
20260506005425 16 35 0.0 3.2 0.00 0.00 0.00 71 1016.1
20260506004920 16 53 0.0 0.0 0.00 0.00 0.00 71 1016.2
20260506004419 16 37 0.0 0.0 0.00 0.00 0.00 71 1016.0
20260506003914 16 76 0.0 0.0 0.00 0.00 0.00 71 1016.1
20260506003411 16 89 0.0 3.2 0.00 0.00 0.00 71 1016.0
20260506002908 16 129 0.0 0.0 0.00 0.00 0.00 70 1016.1
20260506002403 16 63 0.0 1.6 0.00 0.00 0.00 70 1015.9
20260506001859 16 65 0.0 0.0 0.00 0.00 0.00 70 1015.9
20260506001356 16 224 0.0 3.2 0.00 0.00 0.00 70 1016.1
20260506000853 17 52 0.0 1.6 0.00 0.00 0.00 69 1015.8
20260506000353 17 110 0.0 1.6 0.00 0.00 0.00 69 1016.0
20260505235847 17 103 0.0 0.0 0.00 0.00 0.00 69 1015.8
20260505235345 17 32 0.0 0.0 0.00 0.00 0.00 69 1015.9
20260505234842 17 44 0.0 1.6 0.00 0.00 0.00 67 1015.8
20260505234340 17 89 0.0 1.6 0.00 0.00 0.00 67 1015.7
20260505233836 17 72 0.0 1.6 0.00 0.00 0.00 67 1015.8
20260505233334 17 37 0.0 0.0 0.00 0.00 0.00 68 1015.7
20260505232831 17 50 0.0 1.6 0.00 0.00 0.00 66 1016.0
20260505232329 17 50 6.4 6.4 0.00 0.00 0.00 66 1015.7
20260505231825 17 89 0.0 0.0 0.00 0.00 0.00 68 1015.9
20260505231324 16 49 3.2 3.2 0.00 0.00 0.00 66 1015.8
20260505230822 16 53 0.0 1.6 0.00 0.00 0.00 68 1016.0
20260505230318 16 62 0.0 3.2 0.00 0.00 0.00 66 1016.2
20260505225815 16 23 0.0 1.6 0.00 0.00 0.00 66 1015.8
20260505225312 16 44 0.0 3.2 0.00 0.00 0.00 67 1015.9
20260505224807 16 81 0.0 4.8 0.00 0.00 0.00 67 1016.1
20260505224305 16 322 0.0 0.0 0.00 0.00 0.00 67 1016.1
20260505223802 16 27 3.2 3.2 0.00 0.00 0.00 68 1015.9
20260505223259 16 68 1.6 4.8 0.00 0.00 0.00 67 1016.2
20260505222755 16 55 0.0 3.2 0.00 0.00 0.00 68 1016.3
20260505222251 16 269 0.0 3.2 0.00 0.00 0.00 68 1016.4
20260505221748 16 55 3.2 3.2 0.00 0.00 0.00 68 1016.2
20260505221245 16 114 0.0 3.2 0.00 0.00 0.00 68 1016.3
20260505220741 16 46 3.2 4.8 0.00 0.00 0.00 67 1016.2
20260505220239 16 13 3.2 4.8 0.00 0.00 0.00 67 1016.2
20260505215737 17 359 3.2 6.4 0.00 0.00 0.00 65 1016.3
20260505215235 17 322 0.0 3.2 0.00 0.00 0.00 64 1016.2
20260505214733 17 55 0.0 1.6 0.00 0.00 0.00 64 1016.3
20260505214229 17 65 0.0 3.2 0.00 0.00 0.00 63 1016.2
20260505213727 17 13 4.8 4.8 0.00 0.00 0.00 64 1016.4
20260505213224 17 326 0.0 3.2 0.00 0.00 0.00 66 1016.3
20260505212720 16 68 0.0 4.8 0.00 0.00 0.00 66 1016.4
20260505212217 16 15 1.6 3.2 0.00 0.00 0.00 67 1016.4
20260505211714 16 85 0.0 4.8 0.00 0.00 0.00 67 1016.4
20260505211212 16 355 0.0 1.6 0.00 0.00 0.00 66 1016.6
20260505210708 16 28 1.6 4.8 0.00 0.00 0.00 66 1016.5
20260505210205 17 5 0.0 3.2 0.00 0.00 0.00 64 1016.5
20260505205702 17 290 0.0 1.6 0.00 0.00 0.00 64 1016.6
20260505205200 17 89 0.0 3.2 0.00 0.00 0.00 62 1016.5
20260505204656 17 315 0.0 4.8 0.00 0.00 0.00 64 1016.2
20260505204155 17 322 0.0 3.2 0.00 0.00 0.00 65 1016.5
20260505203652 17 66 3.2 3.2 0.00 0.00 0.00 66 1016.3
20260505203148 17 51 3.2 3.2 0.00 0.00 0.00 64 1016.5
20260505202644 17 48 1.6 4.8 0.00 0.00 0.00 62 1016.4
20260505202140 17 103 0.0 6.4 0.00 0.00 0.00 64 1016.5
20260505201637 17 5 1.6 4.8 0.00 0.00 0.00 63 1016.5
20260505201135 17 299 0.0 3.2 0.00 0.00 0.00 63 1016.5
20260505200633 17 69 0.0 4.8 0.00 0.00 0.00 64 1016.5
20260505200129 16 335 0.0 6.4 0.00 0.00 0.00 67 1016.6
20260505195625 16 32 0.0 6.4 0.00 0.00 0.00 67 1016.6
20260505195123 16 320 1.6 3.2 0.00 0.00 0.00 68 1016.7
20260505194620 16 41 1.6 6.4 0.00 0.00 0.00 68 1016.8
20260505194116 15 127 0.0 4.8 0.00 0.00 0.00 68 1016.8
20260505193613 15 269 0.0 4.8 0.00 0.00 0.00 68 1016.9
20260505193110 16 115 1.6 3.2 0.00 0.00 0.00 68 1016.8
20260505192609 16 51 3.2 6.4 0.00 0.00 0.00 67 1016.9
20260505192105 15 323 3.2 3.2 0.00 0.00 0.00 67 1016.9
20260505191604 15 44 0.0 1.6 0.00 0.00 0.00 68 1016.7
20260505191101 15 60 0.0 8.0 0.00 0.00 0.00 68 1016.7
20260505190555 15 85 3.2 3.2 0.00 0.00 0.00 69 1016.8
20260505190052 15 53 0.0 4.8 0.00 0.00 0.00 68 1016.6
20260505185549 15 93 0.0 3.2 0.00 0.00 0.00 68 1016.8
20260505185045 15 315 0.0 4.8 0.00 0.00 0.00 69 1016.9
20260505184542 15 295 0.0 3.2 0.00 0.00 0.00 68 1016.8
20260505184039 15 48 3.2 6.4 0.00 0.00 0.00 69 1016.8
20260505183535 15 289 1.6 4.8 0.00 0.00 0.00 68 1016.7
20260505183033 15 135 0.0 3.2 0.00 0.00 0.00 68 1016.5
20260505182529 15 21 3.2 3.2 0.00 0.00 0.00 69 1016.7
20260505182027 15 124 0.0 3.2 0.00 0.00 0.00 67 1016.6
20260505181523 15 77 3.2 4.8 0.00 0.00 0.00 67 1016.6
20260505181021 15 29 0.0 1.6 0.00 0.00 0.00 67 1016.6
20260505180516 15 77 0.0 3.2 0.00 0.00 0.00 68 1016.4
20260505180015 15 40 3.2 3.2 0.00 0.00 0.00 68 1016.6
20260505175514 15 82 1.6 3.2 0.00 0.00 0.00 67 1016.3
20260505175012 15 55 0.0 3.2 0.00 0.00 0.00 68 1016.3
20260505174509 15 71 1.6 4.8 0.00 0.00 0.00 67 1016.3
20260505174005 15 55 3.2 4.8 0.00 0.00 0.00 68 1016.3
20260505173501 15 312 0.0 3.2 0.00 0.00 0.00 67 1016.1
20260505172958 15 9 0.0 6.4 0.00 0.00 0.00 65 1016.2
20260505172457 15 40 1.6 3.2 0.00 0.00 0.00 66 1016.1
20260505171957 15 110 0.0 3.2 0.00 0.00 0.00 67 1016.2
20260505171453 15 53 0.0 1.6 0.00 0.00 0.00 68 1016.1
20260505170950 15 89 0.0 3.2 0.00 0.00 0.00 68 1016.1
20260505170446 15 159 0.0 3.2 0.00 0.00 0.00 70 1016.1
20260505165942 15 113 0.0 1.6 0.00 0.00 0.00 70 1016.1
20260505165438 14 76 0.0 3.2 0.00 0.00 0.00 72 1016.2
20260505164934 14 25 0.0 6.4 0.00 0.00 0.00 69 1016.2
20260505164431 14 101 3.2 3.2 0.00 0.00 0.00 72 1016.4
20260505163928 13 39 3.2 3.2 0.00 0.00 0.00 71 1016.2
20260505163427 13 21 0.0 3.2 0.00 0.00 0.00 71 1016.2
20260505162926 13 50 0.0 1.6 0.00 0.00 0.00 73 1016.1
20260505162421 13 235 0.0 1.6 0.00 0.00 0.00 72 1016.0
20260505161918 13 71 0.0 1.6 0.00 0.00 0.00 72 1016.0
20260505161415 13 257 0.0 3.2 0.00 0.00 0.00 72 1015.9
20260505160913 13 77 0.0 0.0 0.00 0.00 0.00 74 1015.9
20260505160410 13 50 0.0 3.2 0.00 0.00 0.00 73 1015.8
20260505153349 12 27 0.0 3.2 0.00 0.00 0.00 75 1015.9
20260505152846 12 49 0.0 1.6 0.00 0.00 0.00 75 1015.8
20260505152343 12 119 0.0 4.8 0.00 0.00 0.00 74 1015.9
20260505151837 12 83 0.0 3.2 0.00 0.00 0.00 75 1015.7
20260505151334 12 129 0.0 3.2 0.00 0.00 0.00 75 1015.6
20260505150831 12 132 0.0 1.6 0.00 0.00 0.00 75 1015.8
20260505150328 12 135 0.0 3.2 0.00 0.00 0.00 75 1015.6
20260505140252 12 304 0.0 3.2 0.00 0.00 0.00 75 1015.3
20260505130216 11 103 0.0 1.6 0.00 0.00 0.00 77 1015.0
20260505124706 11 103 0.0 1.6 0.00 0.00 0.00 76 1015.0
20260505124203 11 112 0.0 3.2 0.00 0.00 0.00 76 1015.2
20260505123659 11 67 3.2 3.2 0.00 0.00 0.00 76 1015.0
20260505123156 11 52 0.0 3.2 0.00 0.00 0.00 76 1015.1
20260505122652 11 52 0.0 1.6 0.00 0.00 0.00 75 1015.3
20260505122149 11 96 0.0 3.2 0.00 0.00 0.00 75 1015.2
20260505121646 11 113 1.6 3.2 0.00 0.00 0.00 75 1015.2
20260505121143 11 82 1.6 3.2 0.00 0.00 0.00 75 1015.2
20260505120639 11 114 0.0 1.6 0.00 0.00 0.00 74 1015.3
20260505120135 11 75 1.6 1.6 0.00 0.00 0.00 74 1015.2
20260505115629 11 119 1.6 3.2 0.00 0.00 0.00 74 1015.2
20260505115127 11 95 1.6 3.2 0.00 0.00 0.00 73 1015.3
20260505114624 11 51 3.2 4.8 0.00 0.00 0.00 73 1015.4
20260505114120 11 51 0.0 3.2 0.00 0.00 0.00 73 1015.2
20260505113617 11 56 1.6 3.2 0.00 0.00 0.00 73 1015.2
20260505113114 11 89 0.0 1.6 0.00 0.00 0.00 73 1015.4
20260505112610 11 98 0.0 1.6 0.00 0.00 0.00 72 1015.1
20260505112108 11 66 0.0 1.6 0.00 0.00 0.00 72 1015.0
20260505111602 11 76 0.0 4.8 0.00 0.00 0.00 71 1015.3
20260505111058 11 57 0.0 3.2 0.00 0.00 0.00 72 1015.3
20260505110555 11 89 0.0 3.2 0.00 0.00 0.00 72 1015.2
20260505102027 12 321 0.0 4.8 0.00 0.00 0.00 75 1014.9
20260505101526 12 103 0.0 1.6 0.00 0.00 0.00 75 1015.2
20260505101022 12 40 0.0 3.2 0.00 0.00 0.00 75 1015.1
20260505100519 12 76 0.0 3.2 0.00 0.00 0.00 75 1015.1
20260505100016 12 95 0.0 3.2 0.00 0.00 0.00 75 1015.0
20260505095511 12 44 0.0 1.6 0.00 0.00 0.00 75 1015.1
20260505095008 12 282 0.0 4.8 0.00 0.00 0.00 75 1015.0
20260505094505 12 33 0.0 4.8 0.00 0.00 0.00 74 1015.2
20260505094001 12 312 1.6 4.8 0.00 0.00 0.00 74 1015.3
20260505093457 12 310 0.0 4.8 0.00 0.00 0.00 74 1015.1
20260505092955 12 73 0.0 3.2 0.00 0.00 0.00 75 1015.3
20260505092452 12 131 0.0 4.8 0.00 0.00 0.00 74 1015.2
20260505091950 12 104 0.0 6.4 0.00 0.00 0.00 75 1015.5
20260505091447 12 131 0.0 3.2 0.00 0.00 0.00 75 1015.4
20260505090945 12 129 0.0 3.2 0.00 0.00 0.00 75 1015.3
20260505090443 12 93 3.2 3.2 0.00 0.00 0.00 75 1015.4
20260505085940 12 32 4.8 4.8 0.00 0.00 0.00 75 1015.4
20260505085438 12 328 0.0 4.8 0.00 0.00 0.00 75 1015.5
20260505084936 12 33 0.0 3.2 0.00 0.00 0.00 76 1015.4
20260505084434 12 73 0.0 3.2 0.00 0.00 0.00 76 1015.5
20260505083931 12 41 3.2 6.4 0.00 0.00 0.00 76 1015.6
20260505083429 12 43 1.6 4.8 0.00 0.00 0.00 76 1015.6
20260505082925 12 315 0.0 9.7 0.00 0.00 0.00 76 1015.7
20260505082420 12 299 0.0 4.8 0.00 0.00 0.00 77 1015.4
20260505081918 12 6 0.0 3.2 0.00 0.00 0.00 77 1015.6
20260505081415 12 55 6.4 6.4 0.00 0.00 0.00 77 1015.4
20260505080911 12 81 1.6 3.2 0.00 0.00 0.00 77 1015.5
20260505080407 12 113 0.0 1.6 0.00 0.00 0.00 77 1015.5
20260505075903 12 38 1.6 1.6 0.00 0.00 0.00 77 1015.6
20260505075400 12 29 0.0 3.2 0.00 0.00 0.00 77 1015.7
20260505074857 12 56 0.0 6.4 0.00 0.00 0.00 77 1015.6
20260505074354 12 25 1.6 3.2 0.00 0.00 0.00 77 1015.8
20260505073852 12 89 1.6 3.2 0.00 0.00 0.00 77 1015.9
20260505073349 12 31 0.0 3.2 0.00 0.00 0.00 77 1015.6
20260505072846 12 74 0.0 3.2 0.00 0.00 0.00 77 1015.4
20260505072342 12 59 1.6 3.2 0.00 0.00 0.00 78 1015.4
20260505071838 12 39 0.0 3.2 0.00 0.00 0.00 78 1015.6
20260505071335 12 35 0.0 4.8 0.00 0.00 0.00 78 1015.5
20260505070833 12 20 1.6 3.2 0.00 0.00 0.00 79 1015.4
20260505070329 12 272 1.6 3.2 0.00 0.00 0.00 79 1015.3
20260505065824 12 315 0.0 1.6 0.00 0.00 0.00 79 1015.3
20260505065322 12 99 0.0 3.2 0.00 0.00 0.00 78 1015.3
20260505064819 12 69 0.0 1.6 0.00 0.00 0.00 78 1015.4
20260505064315 12 55 0.0 6.4 0.00 0.00 0.00 78 1015.4
20260505063814 12 233 0.0 3.2 0.00 0.00 0.00 77 1015.5
20260505063310 12 338 3.2 3.2 0.00 0.00 0.00 77 1015.3
20260505062806 13 73 0.0 1.6 0.00 0.00 0.00 77 1015.3
20260505062304 13 238 1.6 3.2 0.00 0.00 0.00 77 1015.2
20260505061800 13 31 0.0 3.2 0.00 0.00 0.00 76 1015.2
20260505061259 13 57 3.2 4.8 0.00 0.00 0.00 76 1015.1
20260505060756 13 343 0.0 4.8 0.00 0.00 0.00 76 1015.3
20260505060253 13 89 0.0 3.2 0.00 0.00 0.00 76 1015.3
20260505055748 13 52 3.2 3.2 0.00 0.00 0.00 76 1015.2
20260505055244 13 87 1.6 1.6 0.00 0.00 0.00 76 1015.5
20260505054742 13 326 0.0 3.2 0.00 0.00 0.00 76 1015.4
20260505054239 13 281 1.6 3.2 0.00 0.00 0.00 75 1015.5
20260505053738 13 62 0.0 3.2 0.00 0.00 0.00 75 1015.6
20260505053234 13 11 1.6 4.8 0.00 0.00 0.00 74 1015.8
20260505052731 13 77 0.0 1.6 0.00 0.00 0.00 73 1015.9
20260505052228 13 56 0.0 3.2 0.00 0.00 0.00 73 1015.6
20260505051725 13 60 0.0 3.2 0.00 0.00 0.00 73 1015.6
20260505051223 13 89 0.0 3.2 0.00 0.00 0.00 73 1015.7
20260505050721 13 106 0.0 3.2 0.00 0.00 0.00 72 1015.6
20260505050219 13 279 0.0 1.6 0.00 0.00 0.00 72 1015.9
20260505041648 13 43 3.2 6.4 0.00 0.00 0.00 67 1015.2
20260505041146 13 83 0.0 4.8 0.00 0.00 0.00 68 1015.3
20260505040643 13 38 0.0 4.8 0.00 0.00 0.00 68 1015.3
20260505040140 13 44 0.0 3.2 0.00 0.00 0.00 69 1015.1
20260505035636 14 134 0.0 3.2 0.00 0.00 0.00 69 1015.2
20260505035132 14 160 0.0 4.8 0.00 0.00 0.00 69 1014.9
20260505034629 14 136 1.6 3.2 0.00 0.00 0.00 69 1014.9
20260505034126 14 52 0.0 1.6 0.00 0.00 0.00 68 1014.8
20260505033623 14 167 0.0 3.2 0.00 0.00 0.00 68 1014.4
20260505033121 14 48 0.0 3.2 0.00 0.00 0.00 68 1014.7
20260505032619 14 134 0.0 3.2 0.00 0.00 0.00 66 1014.6
20260505032115 15 114 0.0 1.6 0.00 0.00 0.00 65 1014.5
20260505031612 15 235 0.0 3.2 0.00 0.00 0.00 65 1014.8
20260505031108 15 111 0.0 3.2 0.00 0.00 0.00 65 1014.6
20260505030606 15 14 0.0 1.6 0.00 0.00 0.00 65 1014.7
20260505025557 15 162 1.6 3.2 0.00 0.00 0.00 64 1014.5
20260505025056 15 37 0.0 1.6 0.00 0.00 0.00 65 1014.3
20260505024553 15 2 1.6 3.2 0.00 0.00 0.00 64 1014.5
20260505024050 15 108 1.6 3.2 0.00 0.00 0.00 65 1014.7
20260505023547 15 48 0.0 3.2 0.00 0.00 0.00 64 1014.6
20260505023045 15 56 0.0 3.2 0.00 0.00 0.00 64 1014.7
20260505022542 16 315 0.0 3.2 0.00 0.00 0.00 63 1014.5
20260505022039 16 141 0.0 3.2 0.00 0.00 0.00 63 1014.5